カタログに戻る

FENGYUN 1C DEB

運用中SSO
NORAD 31814·DEBRIS·🇨🇳 China

打ち上げ May 10, 1999 から Taiyuan Satellite Launch Center

Loading…

次のパス (今後24時間)

TLE

最新Source: Space-Track

元期: Sep 13, 2026, 09:48 UTC

1 31814U 99025CHC 26256.40875427  .00000382  00000-0  42886-3 0  9994
2 31814  99.5412 307.9367 0228843 229.8977 128.1910 13.66731280655516

AllMySatでFENGYUN 1C DEBをリアルタイム追跡

Download on the App Store